Temp
-6 -6 -6 -6 -7 -6 -7 -6 -6 -6 -6 -6 -7 -7 -7 -7 -8 -8 -8 -8 -8 -7 -7 -7 -7 -6 -6 -5 -5 -6 -7 -6 -6 -6 -6 -6 -7 -7 -6 -6 -6 -6 -6 -6 -6 -6 -7 -7 -6
-6 -7 -7 -7 -7 -7 -7 -6 -6 -6 -6 -6 -7 -7 -7 -8 -8 -8 -8 -8 -7 -8 -7 -7 -7 -6 -6 -5 -5 -6 -7 -7 -6 -6 -7 -7 -7 -7 -6 -6 -7 -6 -6 -6 -6 -7 -7 -7 -7
-7 -7 -6 -6 -7 -7 -6 -6 -7 -6 -6 -6 -7 -7 -7 -7 -8 -8 -8 -8 -8 -7 -8 -8 -7 -6 -6 -6 -5 -6 -7 -7 -6 -6 -7 -7 -7 -6 -6 -6 -7 -6 -6 -6 -6 -6 -6 -7 -7
-6 -6 -5 -6 -7 -8 -7 -7 -6 -6 -7 -7 -7 -7 -7 -8 -8 -8 -8 -7 -7 -8 -7 -8 -7 -6 -6 -7 -6 -6 -7 -7 -6 -6 -7 -7 -7 -6 -6 -6 -6 -6 -6 -6 -6 -6 -7 -7 -7
-6 -6 -6 -6 -7 -6 -7 -6 -6 -7 -7 -7 -7 -8 -7 -7 -7 -8 -7 -7 -7 -7 -7 -7 -7 -7 -6 -7 -6 -6 -6 -7 -6 -6 -7 -6 -6 -6 -6 -6 -6 -6 -6 -6 -7 -7 -7 -7 -8
-6 -6 -5 -5 -7 -6 -7 -6 -6 -6 -6 -7 -7 -8 -7 -7 -7 -8 -7 -7 -7 -7 -7 -7 -7 -6 -6 -6 -6 -6 -6 -7 -6 -6 -6 -7 -6 -6 -6 -6 -6 -6 -6 -7 -6 -7 -7 -7 -8
-6 -5 -6 -5 -6 -6 -7 -6 -6 -6 -6 -7 -8 -8 -7 -6 -7 -7 -7 -7 -7 -7 -7 -7 -6 -6 -6 -6 -7 -7 -6 -7 -7 -7 -7 -7 -6 -6 -6 -6 -6 -6 -6 -7 -7 -7 -7 -7 -7
-6 -6 -6 -5 -5 -6 -7 -5 -6 -6 -7 -7 -7 -7 -7 -7 -8 -7 -7 -7 -7 -7 -7 -7 -7 -6 -6 -6 -7 -6 -7 -7 -7 -7 -7 -6 -7 -7 -7 -7 -7 -7 -7 -7 -7 -7 -7 -7 -7
-6 -5 -5 -6 -6 -6 -6 -7 -7 -7 -7 -7 -8 -7 -7 -7 -8 -8 -7 -7 -7 -7 -7 -7 -6 -7 -7 -6 -7 -7 -7 -7 -7 -7 -6 -7 -7 -7 -7 -7 -7 -7 -7 -7 -7 -7 -7 -8 -9
-6 -5 -5 -6 -6 -6 -6 -7 -7 -7 -7 -7 -8 -8 -7 -8 -8 -8 -8 -7 -7 -7 -7 -7 -7 -7 -7 -7 -7 -7 -7 -7 -7 -7 -6 -7 -7 -7 -7 -7 -7 -7 -7 -7 -7 -7 -7 -8 -8
-6 -5 -5 -6 -6 -6 -6 -7 -7 -7 -7 -7 -8 -7 -7 -7 -8 -8 -7 -7 -7 -7 -7 -7 -7 -7 -7 -7 -7 -7 -7 -7 -7 -7 -7 -7 -7 -7 -7 -7 -7 -7 -7 -7 -7 -7 -8 -9 -9
-6 -6 -5 -5 -6 -6 -6 -6 -7 -7 -7 -7 -8 -7 -7 -8 -7 -7 -7 -7 -7 -7 -6 -7 -7 -7 -7 -7 -7 -7 -7 -7 -7 -7 -7 -7 -7 -7 -7 -7 -7 -8 -8 -7 -7 -8 -8 -8 -8
-6 -6 -5 -5 -6 -6 -6 -7 -7 -7 -7 -7 -7 -7 -7 -7 -7 -7 -7 -7 -6 -6 -6 -6 -7 -7 -7 -7 -7 -7 -7 -7 -7 -7 -7 -7 -7 -7 -6 -7 -8 -8 -8 -8 -8 -8 -9 -9 -8
-6 -6 -6 -5 -6 -6 -6 -7 -6 -7 -6 -6 -7 -7 -7 -7 -7 -7 -7 -6 -6 -5 -6 -6 -7 -7 -7 -7 -7 -7 -7 -7 -7 -7 -7 -6 -7 -7 -7 -7 -8 -8 -8 -8 -8 -8 -8 -8 -7
-6 -6 -6 -6 -6 -6 -6 -6 -7 -7 -6 -6 -7 -7 -7 -7 -7 -7 -7 -7 -6 -6 -6 -6 -7 -7 -7 -7 -6 -7 -7 -7 -7 -7 -7 -7 -7 -7 -7 -8 -8 -8 -8 -9 -8 -8 -8 -8 -8
-7 -7 -6 -6 -7 -6 -6 -6 -7 -7 -6 -6 -7 -8 -7 -7 -7 -7 -7 -7 -7 -6 -6 -7 -7 -7 -6 -6 -7 -7 -7 -7 -7 -7 -7 -7 -7 -7 -7 -8 -8 -8 -8 -9 -8 -8 -8 -8 -8
-7 -6 -6 -7 -7 -7 -6 -6 -7 -7 -7 -7 -7 -7 -7 -7 -7 -7 -7 -7 -7 -7 -6 -7 -7 -7 -7 -7 -7 -7 -7 -7 -7 -7 -7 -7 -7 -7 -7 -8 -8 -8 -8 -8 -8 -8 -9 -8 -9
-7 -7 -6 -6 -7 -7 -7 -7 -7 -7 -7 -7 -7 -7 -7 -7 -7 -7 -7 -7 -7 -7 -7 -7 -7 -7 -7 -7 -7 -7 -7 -7 -7 -7 -7 -7 -8 -8 -8 -8 -8 -8 -8 -8 -8 -8 -8 -8 -8
-8 -7 -7 -6 -7 -7 -7 -7 -7 -7 -7 -8 -8 -8 -8 -7 -7 -7 -7 -7 -7 -7 -7 -7 -8 -7 -7 -7 -7 -7 -7 -7 -7 -7 -7 -7 -7 -8 -8 -7 -8 -8 -8 -7 -8 -8 -8 -8 -8
-8 -8 -8 -7 -7 -7 -8 -7 -7 -7 -7 -8 -7 -7 -8 -7 -7 -7 -8 -8 -7 -7 -8 -8 -7 -7 -7 -7 -7 -7 -7 -7 -7 -7 -7 -7 -7 -8 -7 -7 -8 -8 -8 -7 -8 -8 -8 -8 -8
-8 -8 -8 -8 -7 -7 -8 -8 -8 -8 -7 -6 -7 -8 -8 -8 -8 -7 -7 -8 -7 -7 -8 -8 -8 -8 -7 -7 -7 -7 -7 -7 -7 -7 -8 -7 -7 -8 -7 -7 -7 -7 -7 -8 -8 -7 -8 -8 -8
-9 -9 -9 -10 -8 -8 -8 -8 -8 -8 -7 -7 -7 -7 -7 -7 -8 -7 -6 -8 -7 -7 -7 -8 -7 -7 -7 -7 -7 -6 -7 -7 -7 -7 -7 -7 -7 -7 -7 -7 -8 -7 -8 -8 -8 -7 -7 -7 -8
-10 -10 -10 -10 -9 -9 -9 -9 -9 -8 -8 -7 -7 -7 -7 -8 -8 -7 -7 -7 -7 -7 -7 -8 -8 -7 -7 -7 -7 -7 -7 -7 -7 -7 -7 -7 -7 -7 -7 -7 -7 -7 -7 -8 -7 -7 -7 -7 -7
-11 -11 -11 -10 -9 -9 -10 -9 -10 -9 -9 -8 -7 -7 -7 -7 -8 -7 -7 -6 -7 -7 -7 -7 -7 -8 -7 -7 -7 -7 -7 -7 -7 -7 -7 -7 -6 -7 -7 -7 -7 -7 -7 -7 -7 -7 -7 -7 -7
-10 -10 -10 -9 -8 -10 -10 -9 -9 -9 -9 -8 -8 -7 -7 -7 -8 -7 -8 -7 -7 -7 -7 -7 -7 -7 -7 -7 -7 -7 -7 -7 -7 -7 -7 -6 -7 -7 -7 -7 -7 -6 -6 -6 -6 -7 -7 -7 -7
-10 -10 -9 -10 -9 -9 -10 -9 -9 -9 -9 -8 -8 -8 -7 -7 -7 -8 -7 -7 -6 -7 -7 -7 -7 -7 -7 -7 -7 -7 -7 -6 -7 -7 -6 -6 -7 -7 -7 -6 -6 -6 -6 -6 -6 -6 -7 -7 -7
-10 -9 -9 -10 -10 -10 -9 -9 -9 -9 -9 -9 -9 -8 -7 -7 -7 -7 -7 -7 -7 -6 -7 -7 -7 -6 -7 -8 -7 -7 -7 -7 -6 -6 -7 -7 -7 -6 -6 -6 -6 -6 -6 -7 -6 -6 -7 -7 -6
-11 -10 -9 -10 -10 -10 -10 -10 -10 -9 -9 -9 -9 -8 -8 -7 -7 -7 -7 -7 -7 -7 -7 -7 -6 -6 -6 -7 -7 -7 -7 -7 -7 -6 -6 -7 -7 -7 -6 -6 -6 -6 -6 -6 -6 -6 -6 -7 -7
-11 -11 -10 -10 -10 -10 -10 -10 -10 -10 -9 -10 -10 -9 -8 -8 -8 -8 -7 -8 -8 -7 -7 -7 -7 -6 -6 -6 -7 -7 -6 -6 -6 -6 -6 -6 -6 -7 -7 -7 -7 -6 -6 -6 -6 -6 -6 -6 -6
-12 -12 -11 -11 -11 -11 -10 -10 -10 -10 -10 -10 -10 -9 -9 -8 -8 -7 -7 -6 -7 -6 -7 -7 -7 -6 -6 -6 -7 -6 -7 -7 -7 -6 -6 -6 -6 -6 -6 -7 -7 -7 -6 -6 -6 -6 -6 -6 -6
Height
5871 5871 5872 5873 5877 5874 5873 5872 5870 5870 5871 5870 5870 5870 5870 5869 5871 5873 5872 5873 5873 5875 5877 5880 5883 5885 5886 5887 5886 5886 5889 5891 5892 5895 5896 5897 5898 5900 5902 5902 5902 5902 5903 5904 5902 5902 5902 5902 5901
5872 5872 5873 5873 5875 5872 5872 5872 5871 5871 5870 5870 5870 5870 5870 5870 5870 5871 5872 5873 5873 5874 5877 5879 5881 5884 5885 5886 5885 5886 5888 5890 5893 5895 5896 5897 5899 5901 5903 5903 5902 5903 5905 5904 5904 5903 5904 5902 5901
5873 5874 5873 5872 5874 5873 5872 5871 5871 5871 5869 5870 5871 5871 5870 5870 5869 5871 5872 5873 5872 5873 5875 5877 5881 5882 5884 5885 5886 5886 5889 5892 5894 5896 5896 5898 5900 5902 5903 5904 5904 5905 5906 5906 5904 5904 5905 5903 5904
5874 5875 5875 5874 5874 5873 5874 5873 5871 5870 5871 5870 5870 5870 5869 5869 5869 5870 5872 5873 5873 5872 5874 5876 5879 5883 5883 5886 5887 5888 5890 5892 5893 5896 5897 5898 5901 5903 5905 5905 5905 5906 5906 5906 5905 5906 5905 5904 5904
5874 5874 5874 5874 5874 5874 5875 5874 5872 5871 5871 5870 5869 5869 5869 5868 5868 5870 5871 5872 5872 5872 5873 5875 5879 5882 5883 5885 5886 5889 5891 5893 5895 5896 5898 5900 5902 5906 5906 5906 5907 5907 5907 5907 5907 5906 5905 5904 5903
5874 5871 5872 5874 5874 5875 5875 5876 5873 5872 5870 5870 5869 5868 5869 5868 5868 5870 5872 5871 5871 5872 5873 5875 5878 5881 5883 5886 5888 5889 5892 5895 5896 5897 5899 5901 5905 5906 5907 5908 5909 5910 5909 5908 5908 5906 5905 5904 5904
5872 5870 5868 5872 5875 5876 5875 5876 5875 5873 5870 5870 5868 5868 5869 5869 5869 5871 5871 5871 5872 5872 5873 5876 5879 5881 5884 5887 5888 5891 5894 5895 5898 5900 5900 5904 5907 5908 5910 5910 5910 5911 5911 5911 5909 5908 5908 5906 5905
5873 5872 5870 5873 5874 5876 5876 5875 5874 5873 5872 5870 5869 5869 5871 5869 5870 5871 5871 5872 5872 5873 5874 5877 5879 5882 5884 5884 5888 5892 5894 5897 5899 5900 5903 5906 5908 5909 5910 5910 5910 5912 5912 5913 5911 5912 5912 5911 5909
5871 5873 5869 5870 5871 5874 5876 5877 5876 5873 5872 5870 5870 5869 5871 5871 5872 5871 5872 5873 5873 5872 5873 5876 5879 5881 5883 5885 5888 5892 5896 5898 5899 5902 5904 5906 5909 5910 5910 5911 5911 5912 5913 5915 5914 5915 5914 5913 5911
5872 5871 5868 5869 5872 5875 5875 5877 5876 5875 5872 5871 5871 5870 5871 5872 5872 5873 5874 5874 5874 5873 5874 5876 5880 5881 5883 5886 5889 5893 5895 5898 5900 5904 5905 5906 5910 5910 5910 5911 5911 5913 5915 5916 5917 5916 5915 5913 5911
5872 5871 5869 5868 5869 5873 5876 5877 5875 5874 5873 5873 5873 5872 5871 5873 5875 5875 5875 5875 5875 5875 5876 5877 5878 5881 5883 5885 5889 5892 5896 5899 5901 5904 5905 5907 5910 5910 5912 5912 5914 5914 5917 5919 5918 5917 5915 5913 5910
5873 5872 5871 5868 5869 5871 5875 5876 5877 5874 5875 5874 5874 5873 5873 5875 5877 5877 5876 5876 5876 5876 5876 5877 5878 5880 5884 5887 5889 5894 5897 5900 5902 5905 5906 5908 5910 5911 5912 5913 5914 5915 5919 5919 5919 5918 5915 5913 5910
5873 5873 5873 5871 5871 5873 5875 5875 5876 5875 5876 5875 5875 5874 5875 5877 5878 5878 5877 5876 5877 5876 5876 5878 5879 5882 5886 5888 5891 5894 5898 5900 5903 5905 5907 5909 5911 5912 5914 5914 5914 5916 5919 5919 5919 5918 5916 5913 5908
5874 5874 5873 5873 5873 5873 5871 5875 5875 5877 5877 5875 5875 5877 5875 5878 5878 5879 5878 5877 5876 5875 5876 5878 5880 5884 5887 5890 5892 5895 5898 5901 5903 5906 5908 5910 5912 5913 5916 5916 5915 5917 5919 5919 5919 5920 5918 5914 5910
5874 5874 5874 5874 5873 5874 5872 5876 5875 5877 5875 5874 5875 5877 5876 5878 5879 5879 5878 5877 5877 5877 5877 5879 5882 5884 5888 5891 5893 5896 5899 5901 5904 5907 5909 5911 5913 5915 5916 5917 5916 5917 5918 5917 5919 5920 5918 5915 5913
5874 5874 5874 5874 5874 5874 5875 5877 5875 5876 5876 5876 5876 5876 5877 5878 5880 5880 5879 5878 5878 5878 5879 5879 5883 5886 5890 5893 5895 5897 5899 5902 5905 5908 5910 5912 5914 5914 5916 5917 5917 5918 5918 5917 5920 5921 5920 5919 5917
5873 5874 5874 5873 5873 5874 5874 5876 5877 5876 5876 5876 5876 5876 5876 5879 5880 5880 5880 5880 5880 5881 5880 5883 5885 5888 5892 5894 5897 5899 5900 5903 5905 5907 5910 5912 5914 5914 5916 5917 5918 5918 5918 5918 5920 5922 5923 5922 5919
5871 5873 5873 5873 5874 5874 5875 5875 5875 5878 5876 5878 5876 5877 5875 5877 5880 5881 5881 5882 5882 5883 5884 5884 5888 5889 5892 5894 5897 5899 5902 5903 5905 5907 5910 5912 5914 5914 5915 5916 5919 5918 5919 5919 5920 5922 5923 5924 5921
5871 5872 5873 5872 5872 5873 5873 5873 5873 5875 5876 5876 5874 5874 5876 5875 5879 5882 5881 5883 5885 5885 5887 5888 5889 5891 5893 5896 5899 5901 5903 5903 5905 5908 5910 5912 5913 5913 5915 5917 5918 5919 5918 5919 5921 5923 5923 5923 5920
5869 5871 5871 5873 5872 5873 5873 5873 5872 5873 5875 5875 5874 5875 5875 5876 5877 5880 5881 5882 5886 5887 5888 5890 5891 5893 5895 5896 5898 5902 5904 5904 5906 5908 5910 5912 5913 5914 5916 5918 5918 5918 5919 5917 5921 5924 5924 5924 5922
5867 5868 5870 5872 5872 5872 5872 5872 5871 5870 5871 5872 5875 5875 5873 5874 5876 5877 5879 5881 5884 5887 5889 5890 5893 5894 5896 5898 5899 5902 5905 5906 5907 5908 5910 5911 5912 5913 5915 5917 5918 5918 5919 5918 5921 5924 5924 5924 5923
5866 5867 5868 5868 5870 5870 5871 5871 5870 5870 5870 5870 5873 5874 5873 5873 5875 5875 5878 5880 5881 5885 5888 5890 5893 5895 5897 5898 5899 5901 5903 5906 5907 5908 5909 5911 5913 5914 5915 5917 5917 5917 5918 5919 5921 5922 5922 5923 5922
5863 5863 5864 5865 5867 5869 5870 5870 5869 5869 5869 5869 5870 5872 5872 5873 5874 5876 5876 5878 5880 5883 5885 5888 5891 5894 5896 5900 5898 5899 5904 5907 5907 5908 5909 5911 5912 5914 5914 5915 5916 5917 5918 5920 5922 5923 5924 5924 5923
5860 5861 5862 5863 5865 5867 5865 5867 5867 5868 5868 5868 5868 5870 5871 5873 5873 5872 5875 5877 5878 5881 5884 5886 5889 5893 5895 5898 5899 5900 5904 5907 5908 5909 5910 5911 5912 5913 5913 5915 5916 5916 5919 5922 5922 5923 5924 5924 5922
5857 5858 5858 5860 5861 5864 5863 5864 5866 5865 5866 5866 5866 5866 5869 5870 5872 5870 5872 5875 5877 5878 5882 5884 5887 5890 5894 5897 5899 5902 5903 5905 5908 5908 5909 5910 5912 5914 5915 5915 5916 5916 5919 5922 5923 5923 5925 5925 5921
5854 5855 5855 5854 5856 5859 5859 5861 5862 5861 5862 5864 5864 5864 5865 5866 5868 5869 5868 5871 5873 5876 5877 5882 5884 5886 5891 5895 5897 5900 5902 5904 5907 5908 5907 5910 5912 5914 5915 5916 5916 5917 5919 5921 5922 5924 5925 5924 5921
5852 5852 5852 5851 5852 5853 5855 5856 5857 5857 5859 5860 5860 5860 5861 5860 5863 5864 5865 5866 5869 5873 5876 5879 5882 5884 5886 5891 5895 5898 5901 5902 5904 5907 5907 5906 5909 5912 5914 5916 5917 5917 5918 5920 5922 5924 5924 5922 5920
5850 5850 5848 5848 5849 5849 5849 5851 5851 5854 5854 5856 5856 5856 5857 5856 5857 5860 5862 5864 5866 5870 5874 5877 5881 5883 5884 5886 5891 5895 5898 5902 5903 5905 5906 5906 5907 5909 5911 5914 5916 5917 5918 5920 5921 5921 5920 5920 5920
5846 5847 5846 5846 5846 5845 5846 5848 5848 5849 5851 5852 5851 5850 5851 5851 5853 5855 5859 5861 5862 5866 5870 5874 5878 5880 5881 5882 5886 5890 5894 5898 5901 5902 5904 5905 5906 5907 5908 5911 5912 5913 5916 5916 5916 5917 5917 5918 5919
5841 5842 5842 5842 5842 5841 5841 5843 5845 5845 5846 5846 5846 5846 5845 5846 5846 5848 5851 5855 5860 5861 5864 5868 5872 5876 5878 5880 5882 5885 5890 5893 5896 5899 5901 5903 5904 5905 5906 5908 5910 5911 5913 5913 5914 5913 5915 5916 5917
Wind_Speed
2 2 1 4 4 5 3 10 11 9 8 7 6 3 1 1 1 2 3 3 5 9 14 13 13 11 14 13 11 13 24 19 15 12 10 9 8 5 4 4 4 5 1 4 4 4 6 9 11
3 5 8 8 3 1 3 9 7 10 6 7 6 3 2 3 2 3 4 4 9 10 13 14 15 14 13 14 12 16 23 22 15 12 10 9 7 4 4 4 4 3 3 4 3 5 7 8 6
4 10 9 5 2 7 7 10 8 11 8 7 6 2 2 3 3 3 5 6 7 13 14 15 16 17 13 12 9 20 22 21 16 12 12 12 7 4 4 5 4 2 3 3 3 6 6 5 7
6 6 4 2 3 6 4 8 8 8 5 8 6 3 3 4 3 4 6 5 7 6 12 16 18 17 16 14 14 22 22 20 18 13 13 11 7 5 5 4 3 2 1 2 4 5 5 5 5
5 5 7 6 6 7 5 4 6 6 6 7 5 4 2 5 5 5 6 6 5 4 11 15 18 19 19 17 18 24 21 18 16 15 12 8 6 4 4 4 2 1 1 1 4 4 5 5 4
7 17 8 10 8 8 2 3 8 7 7 6 5 5 1 4 7 4 6 7 6 5 13 15 20 19 20 21 20 18 20 17 13 11 9 6 4 3 2 1 1 1 0 2 3 3 4 4 5
7 13 11 10 10 5 2 1 6 8 11 7 6 5 2 4 6 5 7 7 6 5 12 15 17 17 18 19 21 19 16 15 11 9 9 6 4 3 1 1 1 2 0 2 1 1 2 3 6
7 8 2 14 14 4 4 7 6 10 10 8 6 6 2 5 4 3 5 7 6 8 9 15 17 16 18 22 22 21 22 15 10 14 10 8 5 4 2 2 2 2 1 0 3 3 5 10 15
8 11 12 22 14 4 4 7 5 10 9 9 5 8 5 7 8 6 2 5 6 9 11 15 18 17 16 20 24 23 17 12 12 11 11 7 6 4 2 2 2 2 2 2 7 10 11 13 15
8 10 15 8 5 5 3 7 9 9 10 10 5 8 10 9 6 3 4 3 6 8 13 18 18 18 17 17 21 20 17 14 13 12 11 8 6 5 3 1 1 1 1 4 8 11 14 18 27
7 8 11 4 13 6 5 5 11 10 10 11 3 8 12 9 4 4 8 2 8 9 14 15 12 18 18 19 23 22 16 14 14 14 12 10 7 6 4 2 1 2 2 7 10 13 17 21 28
7 6 8 4 15 5 6 9 7 10 8 12 7 9 12 9 5 1 3 4 11 4 13 14 12 18 21 22 22 20 18 14 12 13 12 10 10 8 6 3 2 1 4 8 10 12 15 25 25
7 5 5 4 7 9 6 9 10 11 8 11 10 11 9 6 5 2 1 6 6 5 12 16 13 20 21 21 21 19 17 14 17 15 12 11 9 7 5 5 4 1 4 6 9 11 18 29 25
3 5 8 9 5 4 5 9 6 5 6 11 9 5 8 4 5 2 2 2 2 2 11 18 15 15 18 21 22 19 18 17 16 12 11 8 8 7 4 5 5 3 4 6 7 11 18 20 28
1 4 6 8 11 11 13 12 11 11 7 11 8 4 6 4 6 3 2 1 4 8 13 17 15 13 13 17 17 19 21 17 14 12 8 6 5 6 5 3 4 2 3 4 7 13 16 21 19
7 5 5 8 10 13 10 11 14 8 6 5 9 4 3 5 8 5 5 3 5 9 12 14 15 17 16 13 20 21 19 14 13 10 7 8 11 9 8 3 5 2 1 2 6 9 15 15 17
10 7 7 9 12 11 8 7 11 9 6 5 9 7 6 2 6 5 7 6 7 10 13 13 10 18 17 13 17 21 18 17 13 13 11 9 5 6 5 3 7 2 3 1 4 7 10 12 10
10 7 6 16 15 11 7 6 7 8 12 2 6 2 5 6 4 5 5 7 9 8 15 18 16 20 15 11 18 18 18 14 12 11 11 5 9 3 2 6 6 4 4 1 3 6 8 8 7
13 9 8 13 7 4 4 5 7 7 7 5 3 13 5 7 5 7 8 5 8 10 9 17 18 16 16 20 16 13 15 13 11 13 8 9 7 5 2 1 3 5 9 4 5 7 7 8 9
16 15 13 12 7 3 4 5 2 6 11 3 3 15 7 6 8 11 10 7 5 11 13 10 13 15 15 18 16 13 13 12 12 12 11 9 7 6 3 4 3 6 8 4 2 5 6 6 7
17 17 12 11 10 7 7 6 6 6 6 9 11 16 11 16 14 13 14 12 8 9 12 13 11 14 11 15 13 13 12 13 13 14 9 8 5 4 5 4 1 6 5 3 1 2 5 6 8
16 14 12 16 15 13 10 10 10 7 8 6 1 11 15 17 16 11 10 10 12 11 11 11 14 12 13 13 13 13 12 12 11 8 6 7 6 6 5 5 5 4 2 1 1 1 5 6 6
13 14 18 18 18 16 12 12 14 13 13 12 7 11 12 17 17 15 14 15 13 13 13 11 12 11 9 11 13 10 12 10 11 8 9 8 8 7 4 5 7 6 5 3 2 3 4 2 4
14 16 17 17 15 10 18 16 14 17 17 17 16 11 13 18 18 15 19 19 17 14 14 15 15 14 11 11 12 15 14 13 13 10 10 9 8 7 6 6 6 6 5 5 6 6 3 3 2
16 17 20 19 12 11 17 20 18 20 22 23 23 22 15 15 15 22 21 20 19 17 16 17 19 17 14 14 14 17 14 12 14 12 11 10 9 7 8 7 8 7 6 6 7 7 6 3 2
16 16 17 20 17 17 20 18 16 21 22 26 27 27 23 22 20 23 17 25 22 23 22 20 22 20 16 16 18 16 14 14 15 14 12 13 11 11 7 6 7 8 8 8 8 8 6 4 2
16 15 16 20 21 21 19 18 18 15 16 16 17 21 26 26 21 21 18 13 28 25 25 23 23 22 19 18 20 18 16 16 14 15 16 12 10 9 9 8 10 10 9 10 11 9 7 5 3
13 15 16 20 23 24 24 22 22 17 15 15 16 17 21 28 21 21 18 23 22 26 25 25 25 25 23 19 19 18 17 18 18 18 16 14 13 10 10 9 8 8 9 10 11 8 7 6 5
18 16 17 20 23 24 24 22 21 20 16 15 14 15 17 18 21 24 19 18 25 28 28 24 28 28 24 23 22 22 20 19 19 21 18 17 15 13 12 10 9 9 10 11 10 9 8 9 9
22 21 19 20 21 24 26 25 22 21 16 15 15 16 18 16 22 21 20 22 26 28 35 28 31 25 24 23 23 23 21 21 20 21 20 18 17 14 15 16 17 17 15 13 13 12 11 10 9
Wind_Direction
30 360 295 320 27 43 67 12 33 36 53 37 25 12 32 349 342 161 147 163 160 168 190 195 185 172 167 159 170 180 171 176 175 176 177 162 166 166 125 143 153 178 152 57 76 81 69 61 52
338 312 303 304 290 310 301 6 33 14 38 46 23 7 39 53 77 137 138 134 166 177 185 193 186 176 169 173 160 175 170 167 168 172 170 174 173 131 149 149 156 134 75 68 79 71 65 63 64
319 322 307 316 210 269 337 23 24 17 37 41 23 52 66 82 103 148 162 156 166 177 179 188 181 175 172 162 169 163 168 169 172 178 171 192 164 126 134 126 141 103 66 84 89 70 64 69 66
323 343 335 125 191 164 14 341 21 22 38 46 30 27 84 95 120 154 182 176 166 162 185 192 175 175 165 164 152 156 168 168 179 162 182 180 132 145 127 141 140 93 79 75 83 71 66 57 62
324 309 258 206 152 180 44 13 60 57 56 51 41 46 93 128 131 154 198 194 169 183 183 182 179 175 171 166 163 170 177 176 178 170 179 161 166 150 145 167 131 79 50 87 80 78 71 55 50
323 316 224 204 190 209 350 17 42 63 66 30 49 64 59 134 121 134 182 194 184 176 176 176 175 179 175 173 168 170 175 177 178 186 181 169 146 150 167 156 86 328 238 127 93 81 92 50 25
328 350 209 218 217 249 291 294 25 56 66 41 59 64 80 123 98 150 160 171 184 184 178 178 175 172 175 176 174 169 171 178 186 193 208 154 153 137 124 160 319 331 351 118 130 87 43 336 335
324 1 110 211 178 150 63 40 44 62 62 55 88 89 82 98 107 168 141 153 182 198 188 185 177 179 174 174 185 187 184 182 171 180 179 145 142 141 159 193 15 5 281 351 336 356 334 332 343
340 355 309 205 217 164 16 23 28 40 40 61 85 87 80 96 100 58 99 150 180 191 184 185 177 178 185 179 176 184 180 183 177 166 141 126 146 139 175 52 350 16 266 360 3 5 349 334 331
347 7 29 210 158 226 347 58 46 42 40 48 73 107 96 98 89 85 146 147 170 180 175 176 187 180 186 194 181 176 187 193 195 186 143 150 152 151 139 95 30 330 317 360 11 353 346 334 331
14 18 23 153 201 213 208 154 39 44 40 54 62 125 109 103 108 167 192 232 170 166 166 157 177 187 187 169 174 180 180 162 172 156 155 156 152 150 137 105 71 272 336 21 13 3 350 335 330
19 12 37 112 190 182 118 183 66 78 48 52 66 110 107 111 118 140 206 232 178 191 185 171 165 174 173 167 175 182 172 169 167 161 163 151 164 159 143 113 112 304 6 27 11 356 340 351 8
19 40 35 106 89 103 137 152 102 83 72 76 83 118 97 111 132 195 77 172 195 216 186 175 163 158 173 176 181 181 185 193 168 166 162 166 163 164 143 152 125 12 27 20 12 1 356 1 10
3 33 73 90 100 348 244 171 76 105 83 89 92 98 122 131 150 115 19 208 166 199 169 166 146 149 161 173 182 180 181 165 163 164 170 171 164 159 171 143 124 46 31 16 3 4 11 7 39
171 103 114 85 72 106 91 85 98 121 94 95 87 94 114 148 151 127 74 157 95 96 158 160 162 162 166 157 161 156 156 153 164 168 158 165 171 180 171 137 94 88 49 360 360 14 12 8 29
160 150 118 108 116 106 104 95 91 153 124 98 116 79 102 129 157 125 94 106 91 95 132 136 165 155 156 136 147 153 150 154 168 156 158 174 191 189 171 140 94 115 102 321 20 17 14 5 8
171 168 137 118 135 136 131 118 81 101 86 165 135 144 144 185 176 123 109 128 99 103 128 156 157 164 151 142 161 155 157 162 167 169 171 167 175 194 196 180 165 141 223 300 40 16 14 26 18
187 192 197 138 123 109 102 93 155 112 122 166 189 304 167 182 180 154 115 143 123 108 126 139 155 155 157 173 166 167 167 164 166 186 183 195 185 97 69 178 186 186 254 308 57 36 26 33 53
184 174 167 156 138 97 104 114 124 162 129 130 164 169 245 185 167 177 151 153 134 123 123 142 158 148 149 167 162 150 174 173 167 166 204 193 159 106 13 169 152 214 268 152 94 62 30 42 48
214 210 219 229 224 184 183 216 199 158 168 172 106 186 156 231 188 190 185 157 168 145 142 144 142 149 145 169 176 167 171 176 171 186 190 187 178 159 137 121 88 182 177 239 87 63 57 82 62
225 235 225 231 229 217 194 205 195 192 200 215 169 189 186 212 203 195 190 177 180 179 156 148 154 156 161 162 173 174 184 189 186 194 201 186 156 159 178 170 189 160 195 215 59 77 76 95 88
220 226 230 237 241 228 221 208 222 233 240 247 181 181 199 195 207 209 192 192 196 191 182 167 173 171 175 167 175 172 183 205 199 198 180 169 153 176 180 188 171 150 146 103 113 351 98 101 89
221 243 240 247 243 242 233 223 230 241 255 258 232 195 182 190 210 221 229 210 202 196 194 198 193 178 189 190 181 180 186 199 214 184 193 182 174 185 183 189 178 193 168 172 180 177 129 138 71
231 241 242 244 243 211 237 227 230 242 250 260 260 235 221 198 206 215 232 226 205 211 199 203 205 205 193 203 198 195 188 192 208 196 193 199 200 201 195 201 188 175 189 180 184 174 184 198 110
254 247 245 251 233 203 237 239 243 248 249 259 266 263 241 238 248 238 229 219 211 207 221 213 216 210 211 212 212 207 194 195 202 214 205 206 210 222 211 197 191 185 192 184 185 198 220 204 134
271 266 265 259 257 246 240 250 255 251 245 254 263 266 264 254 253 250 245 221 219 215 208 220 222 214 204 215 213 218 206 203 210 219 219 219 210 197 203 214 198 202 205 203 218 226 229 190 167
267 272 258 259 259 262 256 259 267 255 254 258 264 265 263 268 254 245 234 227 229 228 214 215 223 220 207 204 210 215 217 211 214 229 225 238 233 213 202 199 200 203 206 215 227 227 219 216 218
266 282 269 256 261 266 271 274 273 264 269 270 264 264 260 264 255 241 239 235 228 221 219 218 219 221 212 204 220 225 221 222 218 223 231 228 227 229 228 218 214 206 219 226 226 216 217 230 241
264 271 274 268 264 269 271 266 270 278 278 286 274 272 262 275 257 244 228 233 242 227 220 221 218 221 211 206 212 225 228 227 229 226 222 224 226 227 233 227 228 230 240 243 244 240 232 230 230
272 271 268 269 268 269 272 274 279 281 277 273 273 267 264 255 262 256 255 245 234 237 229 222 223 217 216 214 213 221 228 233 234 233 230 231 230 233 232 231 237 233 238 242 243 245 249 251 242